Jackson, KY

3:38 PM EDT on July 26, 2017 (GMT -0400)
Carroll

Weather History for KJKL - February, 2013

Change the Weather History Date:

Tuesday, February 19, 2013

  Actual Average Record
Temperature  
Mean Temperature 39 °F 40 °F  
Max Temperature 50 °F 49 °F 74 °F (1994)
Min Temperature 28 °F 31 °F -4 °F (2015)
Degree Days  
Heating Degree Days 26 25  
Month to date heating degree days 527 519  
Since 1 July heating degree days 2983 3085  
Cooling Degree Days 0 0  
Month to date cooling degree days 0 0  
Year to date cooling degree days 0 0  
Moisture  
Dew Point 28 °F    
Average Humidity 64    
Maximum Humidity 92    
Minimum Humidity 36    
Precipitation  
Precipitation 0.17 in 0.13 in 0.91 in (1991)
Month to date precipitation 0.99 2.52  
Year to date precipitation 6.72 6.13  
Snow  
Snow 0.00 in 0.20 in 3.10 in (2012)
Month to date snowfall 4.3 5.2  
Since 1 July snowfall 8.3 17.8  
Snow Depth 0.00 in    
Sea Level Pressure  
Sea Level Pressure 29.92 in    
Wind  
Wind Speed 11 mph (WSW)    
Max Wind Speed 17 mph    
Max Gust Speed 33 mph    
Visibility 9 miles    
Events Rain    
T = Trace of Precipitation, MM = Missing Value Source: NWS Daily Summary

Daily Weather History Graph

Daily Weather History Graph

Search for Another Location

Airport or City:

Trip Planner

Search our weather history database for the weather conditions in past years. The results will help you decide how hot, cold, wet, or windy it might be!

Date:

Astronomy

Feb. 19, 2013 Rise Set
Actual Time 7:17 AM EST 6:17 PM EST
Civil Twilight 6:50 AM EST 6:43 PM EST
Nautical Twilight 6:20 AM EST 7:14 PM EST
Astronomical Twilight 5:50 AM EST 7:44 PM EST
Moon 12:51 PM EST (2/19) 2:45 AM EST (2/19)
Length of Visible Light 11h 52m
Length of Day
10h 59m
Waxing Gibbous, 67% of the Moon is Illuminated
Feb 19
Waxing Gibbous
Feb 25
Full
Mar 4
Last Quarter
Mar 11
New
Mar 19
First Quarter

Hourly Weather History & Observations

Time (EST) Temp. Windchill Dew Point Humidity Pressure Visibility Wind Dir Wind Speed Gust Speed Precip Events Conditions
12:53 AM 48.9 °F - 26.1 °F 41% 29.86 in 10.0 mi South 8.1 mph - 0.00 in Rain Light Rain
1:53 AM 45.0 °F 40.1 °F 33.1 °F 63% 29.86 in 4.0 mi South 9.2 mph 19.6 mph 0.04 in Rain Rain
2:53 AM 39.9 °F 32.9 °F 36.0 °F 86% 29.88 in 10.0 mi South 11.5 mph 16.1 mph 0.11 in Rain Light Rain
3:53 AM 39.9 °F 33.4 °F 35.1 °F 83% 29.84 in 10.0 mi South 10.4 mph 26.5 mph 0.01 in   Mostly Cloudy
4:09 AM 39.2 °F 32.5 °F 35.6 °F 87% 29.83 in 10.0 mi SSW 10.4 mph 25.3 mph N/A   Mostly Cloudy
4:53 AM 39.9 °F 35.1 °F 35.1 °F 83% 29.83 in 10.0 mi Variable 6.9 mph 21.9 mph N/A   Overcast
5:53 AM 39.9 °F 32.9 °F 35.1 °F 83% 29.82 in 10.0 mi SSW 11.5 mph 24.2 mph 0.00 in Rain Light Rain
6:53 AM 39.9 °F 32.9 °F 35.1 °F 83% 29.82 in 10.0 mi South 11.5 mph 23.0 mph 0.00 in   Overcast
7:53 AM 39.9 °F 35.8 °F 36.0 °F 86% 29.84 in 10.0 mi Variable 5.8 mph - 0.00 in   Overcast
8:53 AM 41.0 °F 36.4 °F 36.0 °F 82% 29.86 in 10.0 mi Variable 6.9 mph 19.6 mph 0.00 in Rain Light Rain
9:29 AM 37.4 °F 29.8 °F 35.6 °F 93% 29.88 in 6.0 mi WNW 11.5 mph 18.4 mph 0.00 in Rain Light Rain
9:39 AM 37.4 °F 31.4 °F 35.6 °F 93% 29.88 in 5.0 mi WNW 8.1 mph 19.6 mph 0.00 in Rain Light Rain
9:53 AM 37.0 °F 28.9 °F 35.1 °F 93% 29.90 in 8.0 mi West 12.7 mph 18.4 mph 0.01 in Rain Light Rain
10:44 AM 37.4 °F 31.4 °F 33.8 °F 87% 29.91 in 10.0 mi WSW 8.1 mph 17.3 mph 0.00 in   Overcast
10:53 AM 37.9 °F 30.9 °F 34.0 °F 86% 29.91 in 10.0 mi WSW 10.4 mph 17.3 mph 0.00 in   Overcast
11:53 AM 41.0 °F 34.3 °F 30.9 °F 67% 29.90 in 10.0 mi WSW 11.5 mph 24.2 mph 0.00 in   Mostly Cloudy
12:04 PM 44.6 °F 40.7 °F 30.2 °F 57% 29.90 in 10.0 mi Variable 6.9 mph - N/A   Mostly Cloudy
1:53 PM 44.1 °F 37.7 °F 24.1 °F 45% 29.90 in 10.0 mi SW 12.7 mph 27.6 mph N/A   Scattered Clouds
2:53 PM 42.1 °F 34.9 °F 21.9 °F 45% 29.92 in 10.0 mi WSW 13.8 mph 31.1 mph N/A   Mostly Cloudy
3:53 PM 44.1 °F 38.1 °F 21.9 °F 42% 29.95 in 10.0 mi West 11.5 mph 21.9 mph N/A   Partly Cloudy
4:53 PM 42.1 °F 36.6 °F 17.1 °F 37% 29.97 in 10.0 mi West 9.2 mph 20.7 mph N/A   Mostly Cloudy
5:53 PM 39.0 °F 29.9 °F 16.0 °F 39% 30.00 in 10.0 mi West 17.3 mph 26.5 mph N/A   Scattered Clouds
7:53 PM 34.0 °F 26.0 °F 16.0 °F 48% 30.07 in 10.0 mi West 10.4 mph 21.9 mph N/A   Clear
8:53 PM 33.1 °F 23.9 °F 14.0 °F 46% 30.08 in 10.0 mi West 12.7 mph 25.3 mph N/A   Clear
9:53 PM 30.9 °F 23.5 °F 14.0 °F 50% 30.11 in 10.0 mi West 8.1 mph 16.1 mph N/A   Clear
10:53 PM 28.9 °F 18.2 °F 15.1 °F 56% 30.11 in 10.0 mi West 13.8 mph 21.9 mph N/A   Clear
11:53 PM 28.0 °F 20.8 °F 15.1 °F 58% 30.13 in 10.0 mi Variable 6.9 mph 18.4 mph N/A   Clear